Weather WX

World > North America > United States > Minnesota

Summit, Minnesota Regional Weather

Lat: 47.81N, Lon: 94.54W
Wx Zone: MNZ017
Warning FLW WEATHER ALERT - (More Info. Click Here) Warning
Feedback

Summit, MN Regional Weather

Expires:201906171200;;210293
ASUS43 KMPX 171110
RWRMN 
WEATHER ROUNDUP FOR MINNESOTA
NATIONAL WEATHER SERVICE TWIN CITIES/CHANHASSEN MN
600 AM CDT MON JUN 17 2019


NOTE: "FAIR" INDICATES FEW OR NO CLOUDS BELOW 12,000 FEET WITH NO
SIGNIFICANT WEATHER AND/OR OBSTRUCTIONS TO VISIBILITY. N/A MEANS
CURRENT SKY AND/OR WEATHER CONDITIONS ARE NOT AVAILABLE.


MNZ001>005-007-008-013>017-022>024-027-028-171200-
   Northwest Minnesota   
  
CITY           SKY/WX    TMP DP  RH WIND       PRES   REMARKS
BEMIDJI        FAIR      52  51  97 CALM      29.92R                  
HALLOCK        CLOUDY    54  54 100 N8        29.90R FOG              
ROSEAU         MOCLDY    54  48  82 NE8       29.90R                  
WARROAD        DRIZZLE   54  48  82 E9        29.91R                  
THIEF RVR FALL CLOUDY    54  53  97 W9        29.91R                  
CROOKSTON      CLOUDY    54  54 100 W13       29.92R                  
FOSSTON        DRIZZLE   52  50  93 SW9G16    29.93R                  
DETROIT LAKES  CLOUDY    54  52  94 W7        29.96R                  
MOORHEAD       MOCLDY    54  50  87 W8        29.96S                  
PARK RAPIDS    CLOUDY    52  50  93 SW6       29.94R                  
MAHNOMEN       CLOUDY    54  52  95 W8        29.93R                  
$$

SKY/WX - Weather  TMP - Temperature  DP - Dew Point  RH - Relative Humidity
WIND - Wind Direction/Speed PRES - Barometric Pressure VSB - Visibility
WCI - Wind Chill Index E13G22 Wind - East Wind 13 mph/Gusts of 22 mph